Location: Ammerl�gen
(47.2167°N, 9.6000°E)
Time: 06:39:11
(UTC+00:00)

RS-15 - Pass Details

Date: 15 December 2021
Orbit: 1882 x 2162 km, 64.8° (Epoch: 17 January)

Event Time Altitude Azimuth Distance (km) Brightness Sun altitude
Exits shadow 02:46:41 51° 349° (N) 2,518 8.4 -42.0°
Drops below altitude 10° 02:56:54 10° 40° (NE) 4,668 10.4 -40.3°
Sets 03:00:35 0° 45° (NE) 5,688 11.1 -39.7°
